カタログに戻る

ELEKTRON 1

運用中科学HEO
NORAD 746·PAYLOAD·🇷🇺 Russia

打ち上げ Jan 30, 1964 から Baikonur Cosmodrome

Loading…

次のパス (今後24時間)

TLE

最新Source: Space-Track

元期: Sep 14, 2026, 12:20 UTC

1 00746U 64006A   26257.51401259  .00000530  00000-0  15268-3 0  9995
2 00746  60.8866  67.1009 2996384 249.8273  75.8402  9.10988490 75389

AllMySatでELEKTRON 1をリアルタイム追跡

Download on the App Store